![]() |
EMODnet Physics ERDDAP
Easier access to scientific data |
log in|
Brought to you by EMODnet Physics |
| Dataset Title: | NDBC - Collection of dew point temperature (DEWT) TimeSeries - IN SITU MultiPointTimeSeriesObservation
|
| Institution: | NDBC (Dataset ID: TS_DEWT_NDBC) |
| Information: | Summary
| License
| FGDC
| ISO 19115
| Metadata
| Background
| Subset
| Data Access Form
| Make a graph
|
| Name | Last modified | Size | Description | |
|---|---|---|---|---|
| Parent Directory | - | - | ||
| MACM4_TS_DEWT_012015.nc | 20-Dec-2024 12:27 | 429901 | ||
| MACM4_TS_DEWT_012016.nc | 20-Dec-2024 12:34 | 437980 | ||
| MACM4_TS_DEWT_012017.nc | 20-Dec-2024 12:41 | 429900 | ||
| MACM4_TS_DEWT_012018.nc | 20-Dec-2024 12:48 | 425481 | ||
| MACM4_TS_DEWT_022015.nc | 20-Dec-2024 12:28 | 450278 | ||
| MACM4_TS_DEWT_022016.nc | 20-Dec-2024 12:35 | 429903 | ||
| MACM4_TS_DEWT_022017.nc | 20-Dec-2024 12:42 | 450794 | ||
| MACM4_TS_DEWT_022018.nc | 20-Dec-2024 12:48 | 449459 | ||
| MACM4_TS_DEWT_032014.nc | 20-Dec-2024 12:22 | 451171 | ||
| MACM4_TS_DEWT_032015.nc | 20-Dec-2024 12:29 | 450093 | ||
| MACM4_TS_DEWT_032016.nc | 20-Dec-2024 12:36 | 449819 | ||
| MACM4_TS_DEWT_032017.nc | 20-Dec-2024 12:42 | 450547 | ||
| MACM4_TS_DEWT_032018.nc | 20-Dec-2024 12:49 | 449645 | ||
| MACM4_TS_DEWT_042014.nc | 20-Dec-2024 12:22 | 429903 | ||
| MACM4_TS_DEWT_042015.nc | 20-Dec-2024 12:29 | 429897 | ||
| MACM4_TS_DEWT_042016.nc | 20-Dec-2024 12:36 | 429332 | ||
| MACM4_TS_DEWT_042017.nc | 20-Dec-2024 12:43 | 429336 | ||
| MACM4_TS_DEWT_042018.nc | 20-Dec-2024 12:49 | 429340 | ||
| MACM4_TS_DEWT_052014.nc | 20-Dec-2024 12:23 | 429339 | ||
| MACM4_TS_DEWT_052015.nc | 20-Dec-2024 12:30 | 429337 | ||
| MACM4_TS_DEWT_052016.nc | 20-Dec-2024 12:37 | 429344 | ||
| MACM4_TS_DEWT_052017.nc | 20-Dec-2024 12:43 | 429314 | ||
| MACM4_TS_DEWT_052018.nc | 20-Dec-2024 12:50 | 425325 | ||
| MACM4_TS_DEWT_062014.nc | 20-Dec-2024 12:23 | 429347 | ||
| MACM4_TS_DEWT_062015.nc | 20-Dec-2024 12:30 | 429351 | ||
| MACM4_TS_DEWT_062016.nc | 20-Dec-2024 12:37 | 429360 | ||
| MACM4_TS_DEWT_062017.nc | 20-Dec-2024 12:44 | 429356 | ||
| MACM4_TS_DEWT_062018.nc | 20-Dec-2024 12:50 | 429355 | ||
| MACM4_TS_DEWT_072014.nc | 20-Dec-2024 12:24 | 429362 | ||
| MACM4_TS_DEWT_072015.nc | 20-Dec-2024 12:31 | 429357 | ||
| MACM4_TS_DEWT_072016.nc | 20-Dec-2024 12:38 | 449597 | ||
| MACM4_TS_DEWT_072017.nc | 20-Dec-2024 12:44 | 448006 | ||
| MACM4_TS_DEWT_072018.nc | 20-Dec-2024 12:51 | 443045 | ||
| MACM4_TS_DEWT_072025.nc | 16-Aug-2025 08:04 | 450012 | ||
| MACM4_TS_DEWT_082014.nc | 20-Dec-2024 12:25 | 448667 | ||
| MACM4_TS_DEWT_082015.nc | 20-Dec-2024 12:31 | 448797 | ||
| MACM4_TS_DEWT_082016.nc | 20-Dec-2024 12:38 | 448735 | ||
| MACM4_TS_DEWT_082017.nc | 20-Dec-2024 12:45 | 448896 | ||
| MACM4_TS_DEWT_082018.nc | 20-Dec-2024 12:51 | 450044 | ||
| MACM4_TS_DEWT_082025.nc | 18-Aug-2025 06:36 | 449125 | ||
| MACM4_TS_DEWT_092014.nc | 20-Dec-2024 12:25 | 429558 | ||
| MACM4_TS_DEWT_092015.nc | 20-Dec-2024 12:32 | 429556 | ||
| MACM4_TS_DEWT_092016.nc | 20-Dec-2024 12:39 | 429555 | ||
| MACM4_TS_DEWT_092017.nc | 20-Dec-2024 12:45 | 429560 | ||
| MACM4_TS_DEWT_102014.nc | 20-Dec-2024 12:26 | 429556 | ||
| MACM4_TS_DEWT_102015.nc | 20-Dec-2024 12:32 | 448642 | ||
| MACM4_TS_DEWT_102016.nc | 20-Dec-2024 12:39 | 448946 | ||
| MACM4_TS_DEWT_102017.nc | 20-Dec-2024 12:46 | 448794 | ||
| MACM4_TS_DEWT_112014.nc | 20-Dec-2024 12:26 | 448378 | ||
| MACM4_TS_DEWT_112015.nc | 20-Dec-2024 12:33 | 450408 | ||
| MACM4_TS_DEWT_112016.nc | 20-Dec-2024 12:40 | 449295 | ||
| MACM4_TS_DEWT_112017.nc | 20-Dec-2024 12:47 | 449189 | ||
| MACM4_TS_DEWT_122014.nc | 20-Dec-2024 12:27 | 429558 | ||
| MACM4_TS_DEWT_122015.nc | 20-Dec-2024 12:33 | 429557 | ||
| MACM4_TS_DEWT_122016.nc | 20-Dec-2024 12:40 | 429667 | ||
| MACM4_TS_DEWT_122017.nc | 20-Dec-2024 12:47 | 429651 | ||